When you browse on this site, cookies collect data to enhance your experience and personalize the content and advertising you see.
Visit our Privacy Policy to learn more. By continuing to use the site, you agree to this use of cookies and data.
EN

Hourly Weather Pykiv

Today, 16 July, Thursday

Time Temperature Precipitation Wind Pressure Humidity
00:00 +14°C° 0 mm 1 mps 738 mmHg 87%
01:00 +14°C° 0 mm 1 mps 738 mmHg 87%
02:00 +14°C° 0 mm 1 mps 738 mmHg 87%
03:00 +14°C° 0 mm 1 mps 738 mmHg 87%
04:00 +13°C° 0 mm 0 mps 738 mmHg 87%
05:00 +13°C° 0 mm 0 mps 738 mmHg 87%
06:00 +15°C° 0 mm 0 mps 738 mmHg 82%
07:00 +18°C° 0 mm 1 mps 738 mmHg 77%
08:00 +20°C° 0 mm 1 mps 738 mmHg 72%
09:00 +21°C° 0 mm 1 mps 738 mmHg 69%
10:00 +22°C° 0 mm 1 mps 738 mmHg 65%
11:00 +23°C° 0 mm 1 mps 738 mmHg 61%
12:00 +24°C° 0.2 mm 1 mps 738 mmHg 59%
13:00 +24°C° 0.2 mm 1 mps 738 mmHg 57%
14:00 +25°C° 0.2 mm 1 mps 738 mmHg 55%
15:00 +25°C° 0.5 mm 1 mps 737 mmHg 58%
16:00 +24°C° 0.5 mm 1 mps 737 mmHg 61%
17:00 +24°C° 0.5 mm 1 mps 737 mmHg 64%
18:00 +23°C° 0.6 mm 1 mps 737 mmHg 69%
19:00 +21°C° 0.6 mm 1 mps 737 mmHg 74%
20:00 +20°C° 0.6 mm 1 mps 737 mmHg 79%
21:00 +19°C° 0 mm 1 mps 737 mmHg 81%
22:00 +19°C° 0 mm 1 mps 737 mmHg 82%
23:00 +18°C° 0 mm 1 mps 737 mmHg 84%

Tomorrow, 17 July, Friday

Time Temperature Precipitation Wind Pressure Humidity
00:00 +18°C° 0 mm 1 mps 737 mmHg 86%
01:00 +16°C° 0 mm 1 mps 737 mmHg 88%
02:00 +15°C° 0 mm 1 mps 737 mmHg 90%
03:00 +15°C° 0 mm 1 mps 737 mmHg 90%
04:00 +15°C° 0 mm 1 mps 737 mmHg 90%
05:00 +15°C° 0 mm 1 mps 737 mmHg 91%
06:00 +18°C° 0 mm 1 mps 737 mmHg 86%
07:00 +19°C° 0 mm 1 mps 738 mmHg 81%
08:00 +21°C° 0 mm 1 mps 738 mmHg 76%
09:00 +22°C° 0.6 mm 1 mps 738 mmHg 72%
10:00 +24°C° 0.6 mm 2 mps 738 mmHg 67%
11:00 +25°C° 0.6 mm 3 mps 738 mmHg 63%
12:00 +25°C° 0.8 mm 3 mps 738 mmHg 62%
13:00 +26°C° 0.8 mm 3 mps 738 mmHg 61%
14:00 +26°C° 0.8 mm 3 mps 738 mmHg 60%
15:00 +26°C° 0.9 mm 2 mps 738 mmHg 62%
16:00 +25°C° 0.9 mm 2 mps 738 mmHg 64%
17:00 +25°C° 0.9 mm 2 mps 738 mmHg 66%
18:00 +24°C° 0.2 mm 2 mps 738 mmHg 71%
19:00 +21°C° 0.2 mm 2 mps 738 mmHg 76%
20:00 +20°C° 0.2 mm 2 mps 738 mmHg 80%
21:00 +19°C° 0 mm 2 mps 738 mmHg 82%
22:00 +18°C° 0 mm 2 mps 739 mmHg 83%
23:00 +18°C° 0 mm 2 mps 739 mmHg 85%

Day after tomorrow, 18 July, Saturday

Time Temperature Precipitation Wind Pressure Humidity
00:00 +17°C° 0 mm 2 mps 739 mmHg 86%
01:00 +17°C° 0 mm 2 mps 739 mmHg 87%
02:00 +16°C° 0 mm 2 mps 739 mmHg 88%
03:00 +16°C° 0 mm 2 mps 739 mmHg 88%
04:00 +16°C° 0 mm 2 mps 739 mmHg 88%
05:00 +16°C° 0 mm 2 mps 739 mmHg 89%
06:00 +18°C° 0 mm 3 mps 739 mmHg 85%
07:00 +19°C° 0 mm 3 mps 740 mmHg 81%
08:00 +21°C° 0 mm 3 mps 740 mmHg 77%
09:00 +22°C° 0.2 mm 3 mps 740 mmHg 72%
10:00 +23°C° 0.2 mm 4 mps 740 mmHg 67%
11:00 +26°C° 0.2 mm 4 mps 740 mmHg 62%
12:00 +26°C° 0.3 mm 4 mps 740 mmHg 61%
13:00 +27°C° 0.3 mm 3 mps 740 mmHg 60%
14:00 +27°C° 0.3 mm 3 mps 740 mmHg 59%
15:00 +27°C° 0.8 mm 3 mps 740 mmHg 61%
16:00 +26°C° 0.8 mm 3 mps 739 mmHg 63%
17:00 +26°C° 0.8 mm 2 mps 739 mmHg 65%
18:00 +24°C° 0.5 mm 2 mps 739 mmHg 70%
19:00 +23°C° 0.5 mm 2 mps 739 mmHg 76%
20:00 +20°C° 0.5 mm 2 mps 739 mmHg 81%
21:00 +19°C° 0 mm 2 mps 740 mmHg 82%
22:00 +19°C° 0 mm 2 mps 740 mmHg 84%
23:00 +18°C° 0 mm 2 mps 740 mmHg 85%

19 July, Sunday

Time Temperature Precipitation Wind Pressure Humidity
00:00 +18°C° 0 mm 2 mps 740 mmHg 86%
01:00 +17°C° 0 mm 2 mps 740 mmHg 87%
02:00 +17°C° 0 mm 2 mps 740 mmHg 88%
03:00 +17°C° 0 mm 2 mps 740 mmHg 88%
04:00 +17°C° 0 mm 2 mps 740 mmHg 88%
05:00 +17°C° 0 mm 2 mps 740 mmHg 87%
06:00 +18°C° 0 mm 2 mps 740 mmHg 85%
07:00 +19°C° 0 mm 2 mps 740 mmHg 82%
08:00 +21°C° 0 mm 2 mps 740 mmHg 79%
09:00 +22°C° 0.1 mm 3 mps 740 mmHg 73%
10:00 +25°C° 0.1 mm 3 mps 740 mmHg 67%
11:00 +26°C° 0.1 mm 3 mps 740 mmHg 61%
12:00 +26°C° 0.2 mm 3 mps 739 mmHg 60%
13:00 +27°C° 0.2 mm 3 mps 739 mmHg 60%
14:00 +27°C° 0.2 mm 3 mps 739 mmHg 59%
15:00 +26°C° 0.7 mm 3 mps 739 mmHg 61%
16:00 +26°C° 0.7 mm 3 mps 739 mmHg 64%
17:00 +26°C° 0.7 mm 2 mps 739 mmHg 67%
18:00 +24°C° 0.2 mm 2 mps 738 mmHg 71%
19:00 +23°C° 0.2 mm 2 mps 738 mmHg 75%
20:00 +20°C° 0.2 mm 2 mps 738 mmHg 80%
21:00 +20°C° 0 mm 2 mps 738 mmHg 82%
22:00 +19°C° 0 mm 2 mps 738 mmHg 84%
23:00 +18°C° 0 mm 2 mps 738 mmHg 86%

20 July, Monday

Time Temperature Precipitation Wind Pressure Humidity
00:00 +18°C° 0 mm 2 mps 738 mmHg 86%
01:00 +18°C° 0 mm 2 mps 738 mmHg 87%
02:00 +17°C° 0 mm 2 mps 738 mmHg 88%
03:00 +17°C° 0 mm 2 mps 738 mmHg 88%
04:00 +17°C° 0 mm 2 mps 738 mmHg 87%
05:00 +17°C° 0 mm 2 mps 737 mmHg 87%
06:00 +18°C° 0 mm 3 mps 737 mmHg 84%
07:00 +20°C° 0 mm 3 mps 738 mmHg 81%
08:00 +21°C° 0 mm 3 mps 738 mmHg 78%
09:00 +22°C° 0.2 mm 3 mps 738 mmHg 73%
10:00 +25°C° 0.2 mm 3 mps 737 mmHg 69%
11:00 +26°C° 0.2 mm 3 mps 737 mmHg 65%
12:00 +27°C° 0.4 mm 3 mps 737 mmHg 61%
13:00 +27°C° 0.4 mm 3 mps 737 mmHg 57%
14:00 +28°C° 0.4 mm 2 mps 737 mmHg 53%
15:00 +27°C° 0.7 mm 2 mps 737 mmHg 59%
16:00 +26°C° 0.7 mm 2 mps 736 mmHg 65%
17:00 +26°C° 0.7 mm 2 mps 736 mmHg 71%
18:00 +24°C° 1.4 mm 2 mps 736 mmHg 76%
19:00 +21°C° 1.4 mm 2 mps 736 mmHg 80%
20:00 +20°C° 1.4 mm 2 mps 736 mmHg 85%
21:00 +20°C° 0.5 mm 2 mps 736 mmHg 87%
22:00 +19°C° 0.5 mm 2 mps 736 mmHg 89%
23:00 +20°C° 0.5 mm 1 mps 736 mmHg 90%

21 July, Tuesday

Time Temperature Precipitation Wind Pressure Humidity
00:00 +19°C° 0.1 mm 1 mps 736 mmHg 91%
01:00 +19°C° 0.1 mm 1 mps 736 mmHg 91%
02:00 +19°C° 0.1 mm 1 mps 736 mmHg 91%
03:00 +18°C° 0 mm 1 mps 736 mmHg 91%
04:00 +18°C° 0 mm 1 mps 736 mmHg 91%
05:00 +18°C° 0 mm 1 mps 736 mmHg 92%
06:00 +19°C° 0 mm 1 mps 736 mmHg 88%
07:00 +21°C° 0 mm 1 mps 737 mmHg 84%
08:00 +21°C° 0 mm 2 mps 737 mmHg 79%
09:00 +24°C° 0 mm 2 mps 737 mmHg 74%
10:00 +25°C° 0 mm 2 mps 737 mmHg 68%
11:00 +27°C° 0 mm 2 mps 737 mmHg 62%
12:00 +27°C° 0.1 mm 3 mps 737 mmHg 62%
13:00 +28°C° 0.1 mm 3 mps 737 mmHg 62%
14:00 +28°C° 0.1 mm 4 mps 737 mmHg 62%
15:00 +27°C° 0.5 mm 5 mps 737 mmHg 68%
16:00 +26°C° 0.5 mm 5 mps 737 mmHg 74%
17:00 +24°C° 0.5 mm 6 mps 737 mmHg 80%
18:00 +22°C° 0.2 mm 6 mps 737 mmHg 83%
19:00 +21°C° 0.2 mm 5 mps 737 mmHg 87%
20:00 +19°C° 0.2 mm 5 mps 738 mmHg 90%
21:00 +17°C° 0 mm 5 mps 738 mmHg 92%
22:00 +17°C° 0 mm 4 mps 738 mmHg 93%
23:00 +17°C° 0 mm 4 mps 739 mmHg 94%
Show more